CW8998 Weather Reports


Display with metric or nautical units.
time (UTC)temp
F
wind
direction
speed
MPH
gust
MPH
rain 1hr
in
rain 24hr
in
rain mn
in
humidity
%
barometer
mb
20260506185026 42 302 1.0 15.0 0.00 0.00 0.00 49 1015.6
20260506184544 42 300 5.0 15.0 0.00 0.00 0.00 48 1015.7
20260506184029 42 300 5.0 15.0 0.00 0.00 0.00 47 1015.6
20260506183529 42 309 5.0 12.0 0.00 0.00 0.00 48 1015.7
20260506183041 42 281 3.0 12.0 0.00 0.00 0.00 49 1015.8
20260506182528 42 286 4.0 12.0 0.00 0.00 0.00 50 1015.7
20260506182029 41 297 3.0 12.0 0.00 0.00 0.00 49 1015.8
20260506181540 41 248 7.0 12.0 0.00 0.00 0.00 49 1016.0
20260506181025 41 338 4.0 12.0 0.00 0.00 0.00 50 1016.0
20260506180526 41 273 5.0 12.0 0.00 0.00 0.00 50 1016.0
20260506180038 40 41 2.0 9.0 0.00 0.00 0.00 51 1016.1
20260506175525 40 338 4.0 10.0 0.00 0.00 0.00 50 1016.2
20260506175028 40 279 3.0 11.0 0.00 0.00 0.00 51 1016.3
20260506174546 40 286 6.0 11.0 0.00 0.00 0.00 52 1016.4
20260506174029 40 294 5.0 11.0 0.00 0.00 0.00 51 1016.3
20260506173529 40 5 4.0 13.0 0.00 0.00 0.00 52 1016.3
20260506173054 39 26 5.0 13.0 0.00 0.00 0.00 52 1016.4
20260506172528 40 321 4.0 13.0 0.00 0.00 0.00 51 1016.3
20260506172029 39 342 7.0 13.0 0.00 0.00 0.00 52 1016.4
20260506171542 39 257 7.0 13.0 0.00 0.00 0.00 52 1016.5
20260506171028 39 300 4.0 15.0 0.00 0.00 0.00 53 1016.5
20260506170526 39 302 5.0 15.0 0.00 0.00 0.00 53 1016.5
20260506170038 39 290 5.0 13.0 0.00 0.00 0.00 53 1016.5
20260506165528 39 321 5.0 13.0 0.00 0.00 0.00 53 1016.6
20260506165028 38 308 7.0 13.0 0.00 0.00 0.00 53 1016.6
20260506164542 38 290 5.0 13.0 0.00 0.00 0.00 54 1016.5
20260506164027 38 238 6.0 13.0 0.00 0.00 0.00 54 1016.6
20260506163530 38 340 3.0 13.0 0.00 0.00 0.00 55 1016.6
20260506163048 38 289 6.0 15.0 0.00 0.00 0.00 56 1016.6
20260506162527 38 252 6.0 15.0 0.00 0.00 0.00 55 1016.7
20260506162028 38 292 5.0 12.0 0.00 0.00 0.00 55 1016.6
20260506161541 38 355 5.0 13.0 0.00 0.00 0.00 56 1016.7
20260506161029 38 264 4.0 13.0 0.00 0.00 0.00 55 1016.6
20260506160527 38 334 6.0 12.0 0.00 0.00 0.00 55 1016.6
20260506160042 38 305 4.0 11.0 0.00 0.00 0.00 55 1016.7
20260506155529 38 255 4.0 12.0 0.00 0.00 0.00 56 1016.7
20260506155028 38 272 6.0 12.0 0.00 0.00 0.00 56 1016.7
20260506154541 38 291 5.0 11.0 0.00 0.00 0.00 55 1016.7
20260506154028 38 289 4.0 11.0 0.00 0.00 0.00 55 1016.5
20260506153528 38 322 4.0 12.0 0.00 0.00 0.00 55 1016.5
20260506153045 38 355 5.0 12.0 0.00 0.00 0.00 54 1016.5
20260506152528 38 351 5.0 14.0 0.00 0.00 0.00 55 1016.5
20260506152028 38 0 6.0 14.0 0.00 0.00 0.00 54 1016.5
20260506151542 38 317 5.0 10.0 0.00 0.00 0.00 54 1016.5
20260506151027 38 295 4.0 12.0 0.00 0.00 0.00 55 1016.5
20260506150528 37 323 5.0 14.0 0.00 0.00 0.00 55 1016.5
20260506150048 37 309 6.0 14.0 0.00 0.00 0.00 54 1016.6
20260506145531 38 306 2.0 12.0 0.00 0.00 0.00 55 1016.6
20260506145029 37 325 5.0 12.0 0.00 0.00 0.00 55 1016.5
20260506144558 38 298 4.0 10.0 0.00 0.00 0.00 55 1016.5
20260506144028 37 236 3.0 10.0 0.00 0.00 0.00 56 1016.5
20260506143528 37 277 3.0 10.0 0.00 0.00 0.00 57 1016.5
20260506143049 37 176 3.0 10.0 0.00 0.00 0.00 58 1016.4
20260506142527 37 312 3.0 8.0 0.00 0.00 0.00 59 1016.4
20260506142027 37 321 2.0 10.0 0.00 0.00 0.00 59 1016.5
20260506141542 37 22 3.0 10.0 0.00 0.00 0.00 59 1016.4
20260506141028 37 262 3.0 9.0 0.00 0.00 0.00 60 1016.3
20260506140529 37 16 4.0 9.0 0.00 0.00 0.00 61 1016.4
20260506140057 36 360 3.0 13.0 0.00 0.00 0.00 61 1016.3
20260506135527 36 313 4.0 13.0 0.00 0.00 0.00 61 1016.2
20260506135027 36 282 3.0 12.0 0.00 0.00 0.00 61 1016.2
20260506134545 36 303 3.0 10.0 0.00 0.00 0.00 62 1016.2
20260506134030 36 329 5.0 10.0 0.00 0.00 0.00 62 1016.2
20260506133527 36 12 3.0 9.0 0.00 0.00 0.00 62 1016.1
20260506133040 36 350 3.0 8.0 0.00 0.00 0.00 63 1016.1
20260506132528 36 301 3.0 8.0 0.00 0.00 0.00 63 1016.1
20260506132029 36 345 3.0 7.0 0.00 0.00 0.00 63 1016.1
20260506131546 35 303 1.0 10.0 0.00 0.00 0.00 63 1016.1
20260506131028 35 281 3.0 10.0 0.00 0.00 0.00 63 1016.0
20260506130528 35 309 2.0 8.0 0.00 0.00 0.00 64 1016.0
20260506130112 35 316 2.0 8.0 0.00 0.00 0.00 64 1015.8
20260506125527 35 294 3.0 8.0 0.00 0.00 0.00 64 1015.9
20260506125027 35 281 1.0 8.0 0.00 0.00 0.00 65 1015.9
20260506124541 35 302 2.0 8.0 0.00 0.00 0.00 65 1015.8
20260506124028 34 309 2.0 6.0 0.00 0.00 0.00 66 1015.7
20260506123528 34 0 2.0 6.0 0.00 0.00 0.00 66 1015.7
20260506123046 34 331 1.0 5.0 0.00 0.00 0.00 66 1015.7
20260506122528 34 294 2.0 5.0 0.00 0.00 0.00 66 1015.6
20260506122028 34 28 1.0 4.0 0.00 0.00 0.00 67 1015.5
20260506121545 34 310 1.0 6.0 0.00 0.00 0.00 68 1015.5
20260506121028 34 0 2.0 6.0 0.00 0.00 0.00 68 1015.4
20260506120528 33 288 1.0 4.0 0.00 0.00 0.00 68 1015.4
20260506120040 33 355 1.0 5.0 0.00 0.00 0.00 68 1015.4
20260506115530 33 294 2.0 6.0 0.00 0.00 0.00 68 1015.3
20260506115027 33 301 2.0 6.0 0.00 0.00 0.00 69 1015.3
20260506114543 33 300 2.0 7.0 0.00 0.00 0.00 69 1015.2
20260506114029 33 294 3.0 7.0 0.00 0.00 0.00 69 1015.2
20260506113529 33 317 2.0 6.0 0.00 0.00 0.00 69 1015.1
20260506113047 33 280 2.0 6.0 0.00 0.00 0.00 69 1015.1
20260506112527 32 311 1.0 6.0 0.00 0.00 0.00 69 1015.1
20260506112028 32 298 1.0 7.0 0.00 0.00 0.00 69 1015.0
20260506111538 32 292 3.0 7.0 0.00 0.00 0.00 69 1015.0
20260506111028 32 326 1.0 4.0 0.00 0.00 0.00 70 1015.0
20260506110528 32 292 0.0 4.0 0.00 0.00 0.00 70 1015.0
20260506110042 32 300 2.0 4.0 0.00 0.00 0.00 70 1015.0
20260506105529 32 300 2.0 5.0 0.00 0.00 0.00 71 1015.1
20260506105028 32 319 2.0 6.0 0.00 0.00 0.00 71 1015.0
20260506104553 31 277 1.0 6.0 0.00 0.00 0.00 72 1015.0
20260506104028 31 290 1.0 6.0 0.00 0.00 0.00 72 1014.9
20260506103528 31 308 2.0 6.0 0.00 0.00 0.00 72 1014.9
20260506103043 31 293 1.0 4.0 0.00 0.00 0.00 72 1014.8
20260506102527 31 273 1.0 4.0 0.00 0.00 0.00 72 1014.7
20260506102028 31 287 1.0 4.0 0.00 0.00 0.00 72 1014.6
20260506101541 31 287 2.0 4.0 0.00 0.00 0.00 73 1014.6
20260506101027 31 296 2.0 4.0 0.00 0.00 0.00 72 1014.6
20260506100527 30 278 1.0 3.0 0.00 0.00 0.00 73 1014.5
20260506100050 30 0 1.0 3.0 0.00 0.00 0.00 73 1014.6
20260506095529 30 282 1.0 3.0 0.00 0.00 0.00 73 1014.6
20260506095027 30 300 1.0 3.0 0.00 0.00 0.00 72 1014.5
20260506094536 31 281 0.0 3.0 0.00 0.00 0.00 72 1014.6
20260506094028 31 281 1.0 3.0 0.00 0.00 0.00 72 1014.6
20260506093528 31 0 0.0 4.0 0.00 0.00 0.00 71 1014.5
20260506093045 31 0 1.0 4.0 0.00 0.00 0.00 71 1014.5
20260506092529 31 290 1.0 4.0 0.00 0.00 0.00 71 1014.5
20260506092028 31 0 1.0 4.0 0.00 0.00 0.00 71 1014.5
20260506091542 31 325 0.0 4.0 0.00 0.00 0.00 70 1014.4
20260506091031 31 327 1.0 4.0 0.00 0.00 0.00 70 1014.3
20260506090528 31 315 1.0 4.0 0.00 0.00 0.00 70 1014.4
20260506090042 31 319 2.0 4.0 0.00 0.00 0.00 70 1014.4
20260506085527 31 285 1.0 4.0 0.00 0.00 0.00 70 1014.3
20260506085031 31 302 2.0 4.0 0.00 0.00 0.00 71 1014.3
20260506084540 31 328 2.0 4.0 0.00 0.00 0.00 71 1014.2
20260506084028 31 304 1.0 3.0 0.00 0.00 0.00 71 1014.2
20260506083528 30 310 1.0 3.0 0.00 0.00 0.00 72 1014.2
20260506083055 30 327 1.0 3.0 0.00 0.00 0.00 72 1014.1
20260506082528 30 338 0.0 3.0 0.00 0.00 0.00 72 1014.1
20260506082028 30 0 0.0 2.0 0.00 0.00 0.00 72 1014.2
20260506081559 31 0 0.0 2.0 0.00 0.00 0.00 71 1014.2
20260506081028 31 0 0.0 2.0 0.00 0.00 0.00 71 1014.2
20260506080528 31 325 0.0 2.0 0.00 0.00 0.00 71 1014.2
20260506073039 31 0 0.0 3.0 0.00 0.00 0.00 70 1013.9
20260506072527 31 324 0.0 2.0 0.00 0.00 0.00 70 1013.8
20260506072027 32 0 0.0 2.0 0.00 0.00 0.00 70 1013.8
20260506071545 32 0 0.0 3.0 0.00 0.00 0.00 69 1013.8
20260506071027 32 336 0.0 3.0 0.00 0.00 0.00 69 1013.8
20260506070529 32 0 1.0 3.0 0.00 0.00 0.00 69 1013.9
20260506062027 32 306 0.0 4.0 0.00 0.00 0.00 68 1014.2
20260506061545 32 299 0.0 4.0 0.00 0.00 0.00 69 1014.1
20260506061026 32 298 0.0 2.0 0.00 0.00 0.00 69 1014.0
20260506060529 33 310 0.0 2.0 0.00 0.00 0.00 69 1013.9
20260506051028 33 298 0.0 2.0 0.00 0.00 0.00 64 1013.8
20260506050527 34 0 0.0 3.0 0.00 0.00 0.00 64 1013.6
20260506045029 34 301 0.0 3.0 0.00 0.00 0.00 62 1013.7
20260506044547 34 0 0.0 3.0 0.00 0.00 0.00 62 1013.5
20260506044030 34 316 0.0 2.0 0.00 0.00 0.00 62 1013.6
20260506043528 34 325 0.0 3.0 0.00 0.00 0.00 62 1013.6
20260506043036 34 321 1.0 3.0 0.00 0.00 0.00 61 1013.5
20260506042528 34 311 0.0 3.0 0.00 0.00 0.00 61 1013.4
20260506042029 35 0 0.0 3.0 0.00 0.00 0.00 61 1013.5
20260506041543 35 0 1.0 3.0 0.00 0.00 0.00 60 1013.5
20260506041028 35 342 1.0 3.0 0.00 0.00 0.00 60 1013.5
20260506040528 35 0 0.0 4.0 0.00 0.00 0.00 60 1013.4
20260506040041 35 297 1.0 4.0 0.00 0.00 0.00 60 1013.4
20260506035528 35 332 1.0 3.0 0.00 0.00 0.00 59 1013.4
20260506035027 36 321 1.0 3.0 0.00 0.00 0.00 59 1013.4
20260506034552 36 263 0.0 3.0 0.00 0.00 0.00 59 1013.4
20260506034028 36 311 1.0 4.0 0.00 0.00 0.00 59 1013.4
20260506033527 36 345 1.0 4.0 0.00 0.00 0.00 58 1013.3
20260506033038 36 347 1.0 4.0 0.00 0.00 0.00 58 1013.3
20260506032527 37 315 1.0 4.0 0.00 0.00 0.00 57 1013.2
20260506032029 37 345 1.0 9.0 0.00 0.00 0.00 56 1013.2
20260506031550 37 313 1.0 9.0 0.00 0.00 0.00 55 1013.2
20260506031029 37 313 4.0 9.0 0.00 0.00 0.00 55 1013.1
20260506030530 37 11 2.0 6.0 0.00 0.00 0.00 54 1013.2
20260506030041 37 335 2.0 9.0 0.00 0.00 0.00 54 1013.2
20260506025527 38 267 3.0 9.0 0.00 0.00 0.00 54 1013.2
20260506025027 38 28 3.0 7.0 0.00 0.00 0.00 54 1013.1
20260506024549 38 342 2.0 9.0 0.00 0.00 0.00 54 1013.1
20260506024028 38 333 3.0 9.0 0.00 0.00 0.00 53 1013.1
20260506023527 38 319 3.0 7.0 0.00 0.00 0.00 53 1013.0
20260506023038 38 305 2.0 7.0 0.00 0.00 0.00 53 1012.9
20260506022528 38 327 2.0 8.0 0.00 0.00 0.00 53 1012.8
20260506022027 39 329 2.0 9.0 0.00 0.00 0.00 53 1012.7
20260506021538 39 323 3.0 9.0 0.00 0.00 0.00 52 1012.8
20260506021027 39 312 3.0 9.0 0.00 0.00 0.00 52 1012.6
20260506020527 39 317 2.0 9.0 0.00 0.00 0.00 52 1012.5
20260506020037 39 347 3.0 10.0 0.00 0.00 0.00 51 1012.4
20260506015528 40 325 4.0 13.0 0.00 0.00 0.00 51 1012.4
20260506015028 40 327 4.0 13.0 0.00 0.00 0.00 51 1012.4
20260506014542 40 338 3.0 12.0 0.00 0.00 0.00 51 1012.4
20260506014027 40 350 3.0 12.0 0.00 0.00 0.00 51 1012.3
20260506013528 40 271 4.0 12.0 0.00 0.00 0.00 51 1012.3
20260506013042 40 318 4.0 9.0 0.00 0.00 0.00 50 1012.2
20260506012527 41 302 4.0 11.0 0.00 0.00 0.00 50 1012.1
20260506012030 41 288 3.0 11.0 0.00 0.00 0.00 49 1012.1
20260506011543 41 32 2.0 10.0 0.00 0.00 0.00 49 1012.1
20260506011028 41 15 4.0 12.0 0.00 0.00 0.00 49 1011.9
20260506010528 41 303 5.0 12.0 0.00 0.00 0.00 48 1012.0
20260506010051 42 278 6.0 14.0 0.00 0.00 0.00 47 1011.9
20260506005528 42 338 4.0 14.0 0.00 0.00 0.00 48 1011.9
20260506005027 42 313 4.0 14.0 0.00 0.00 0.00 47 1011.8
20260506004541 42 327 4.0 14.0 0.00 0.00 0.00 48 1011.8
20260506004027 42 293 5.0 17.0 0.00 0.00 0.00 47 1011.7
20260506003528 43 294 7.0 17.0 0.00 0.00 0.00 47 1011.8
20260506003042 43 325 5.0 16.0 0.00 0.00 0.00 47 1011.7
20260506002528 43 300 7.0 14.0 0.00 0.00 0.00 47 1011.6
20260506002027 43 313 7.0 14.0 0.00 0.00 0.00 47 1011.6
20260506001541 43 295 4.0 11.0 0.00 0.00 0.00 48 1011.5
20260506001028 43 360 4.0 17.0 0.00 0.00 0.00 48 1011.5
20260506000528 43 5 7.0 17.0 0.00 0.00 0.00 47 1011.5
20260506000042 44 322 6.0 22.0 0.00 0.00 0.00 47 1011.6
20260505235525 44 278 9.0 22.0 0.00 0.00 0.00 46 1011.4
20260505235027 44 261 9.0 15.0 0.00 0.00 0.00 46 1011.4
20260505234540 44 28 6.0 16.0 0.00 0.00 0.00 46 1011.2
20260505234027 44 271 4.0 16.0 0.00 0.00 0.00 46 1011.2
20260505233528 45 298 8.0 16.0 0.00 0.00 0.00 45 1011.2
20260505233047 45 272 7.0 14.0 0.00 0.00 0.00 44 1011.2
20260505232528 46 288 5.0 13.0 0.00 0.00 0.00 44 1011.1
20260505232028 46 302 5.0 13.0 0.00 0.00 0.00 43 1011.0
20260505231541 46 332 6.0 16.0 0.00 0.00 0.00 43 1011.0
20260505231028 46 313 7.0 16.0 0.00 0.00 0.00 43 1011.0
20260505230527 46 345 6.0 17.0 0.00 0.00 0.00 43 1010.9
20260505230049 46 275 5.0 17.0 0.00 0.00 0.00 43 1011.0
20260505225527 46 336 6.0 17.0 0.00 0.00 0.00 42 1011.0
20260505225028 46 360 4.0 16.0 0.00 0.00 0.00 42 1011.0
20260505224543 46 32 6.0 16.0 0.00 0.00 0.00 41 1010.9
20260505224028 47 286 5.0 17.0 0.00 0.00 0.00 41 1010.9
20260505223527 47 322 7.0 17.0 0.00 0.00 0.00 40 1010.9
20260505223041 47 282 9.0 17.0 0.00 0.00 0.00 40 1010.8
20260505222529 47 297 6.0 13.0 0.00 0.00 0.00 40 1010.7
20260505222028 47 273 5.0 20.0 0.00 0.00 0.00 42 1010.7
20260505221540 47 347 5.0 20.0 0.00 0.00 0.00 41 1010.8
20260505221026 47 30 6.0 15.0 0.00 0.00 0.00 40 1010.7
20260505220527 47 260 8.0 15.0 0.00 0.00 0.00 41 1010.7
20260505220040 47 263 6.0 14.0 0.00 0.00 0.00 42 1010.6
20260505215527 47 290 7.0 19.0 0.00 0.00 0.00 42 1010.6
20260505215027 47 360 7.0 19.0 0.00 0.00 0.00 42 1010.6
20260505214538 47 311 9.0 19.0 0.00 0.00 0.00 42 1010.7
20260505214027 47 336 5.0 15.0 0.00 0.00 0.00 42 1010.7
20260505213527 47 302 5.0 15.0 0.00 0.00 0.00 42 1010.8
20260505213037 48 274 8.0 16.0 0.00 0.00 0.00 41 1010.9
20260505212530 47 284 6.0 21.0 0.00 0.00 0.00 42 1010.8
20260505212028 47 308 11.0 21.0 0.00 0.00 0.00 42 1010.8
20260505211546 48 287 7.0 18.0 0.00 0.00 0.00 40 1010.8
20260505211027 48 310 8.0 14.0 0.00 0.00 0.00 41 1010.8
20260505210528 48 293 5.0 18.0 0.00 0.00 0.00 42 1010.8
20260505210043 48 300 6.0 18.0 0.00 0.00 0.00 42 1010.8
20260505205528 48 285 5.0 15.0 0.00 0.00 0.00 41 1010.7
20260505205028 47 317 7.0 15.0 0.00 0.00 0.00 42 1010.7
20260505204540 47 321 7.0 17.0 0.00 0.00 0.00 42 1010.8
20260505204027 47 327 8.0 19.0 0.00 0.00 0.00 42 1010.7
20260505203528 47 275 7.0 19.0 0.00 0.00 0.00 42 1010.7
20260505203040 47 284 7.0 18.0 0.00 0.00 0.00 42 1010.5
20260505202527 47 268 8.0 16.0 0.00 0.00 0.00 40 1010.7
20260505202026 48 289 7.0 14.0 0.00 0.00 0.00 41 1010.6
20260505201551 48 308 8.0 14.0 0.00 0.00 0.00 40 1010.7
20260505201029 48 284 4.0 14.0 0.00 0.00 0.00 41 1010.7
20260505200529 47 349 5.0 15.0 0.00 0.00 0.00 42 1010.6
20260505200043 47 323 6.0 16.0 0.00 0.00 0.00 42 1010.7
20260505195528 47 360 7.0 16.0 0.00 0.00 0.00 41 1010.6
20260505195027 46 326 6.0 14.0 0.00 0.00 0.00 42 1010.7
20260505194542 46 209 5.0 16.0 0.00 0.00 0.00 42 1010.7
20260505194029 46 313 7.0 16.0 0.00 0.00 0.00 43 1010.7
20260505193526 46 355 5.0 14.0 0.00 0.00 0.00 42 1010.8
20260505193041 46 294 8.0 14.0 0.00 0.00 0.00 41 1010.7
20260505192532 46 262 7.0 12.0 0.00 0.00 0.00 42 1010.7
20260505192030 46 292 5.0 11.0 0.00 0.00 0.00 41 1010.7
20260505191538 46 355 3.0 12.0 0.00 0.00 0.00 42 1010.7
20260505191027 46 305 6.0 12.0 0.00 0.00 0.00 42 1010.7
20260505190529 46 310 5.0 11.0 0.00 0.00 0.00 42 1010.6
20260505190039 46 332 4.0 11.0 0.00 0.00 0.00 42 1010.7
20260505185530 46 294 5.0 11.0 0.00 0.00 0.00 42 1010.7